Location: Baltimore
(39.2900°N, 76.6130°W)
Time: 08:53:33
(UTC-05:00)

Tiangong - Visible Passes

Search period start: 13 December 2025 00:00
Search period end: 23 December 2025 00:00
Orbit: 384 x 395 km, 41.5° (Epoch: 12 December)

Date Brightness Start Highest point End Pass type
(mag) Time Alt. Az. Time Alt. Az. Time Alt. Az.
20 Dec 0.1 18:37:30 10° SSW 18:38:51 17° S 18:38:51 17° S visible
21 Dec 0.3 17:40:29 10° SSE 17:41:45 12° SE 17:43:01 10° ESE visible
21 Dec 0.9 19:15:07 10° WSW 19:15:46 15° SW 19:15:46 15° SW visible
22 Dec -1.3 18:16:58 10° SW 18:19:55 36° SSE 18:20:16 34° SE visible
